Location: Holyhead Bay
(53.3667°N, 4.6667°W)
Time: 17:59:20
(UTC+00:00)

Cosmos 2278 Rocket - Pass Details

Date: 24 November 2020
Orbit: 839 x 847 km, 71.0° (Epoch: 16 January)

Event Time Altitude Azimuth Distance (km) Brightness Sun altitude
Rises 17:10:28 0° 327° (NNW) 3,416 5.5 -8.7°
Reaches altitude 10° 17:12:56 10° 327° (NNW) 2,478 4.8 -9.0°
Maximum altitude 17:18:38 82° 241° (WSW) 861 2.4 -9.8°
Drops below altitude 10° 17:24:18 10° 154° (SSE) 2,467 4.6 -10.6°
Sets 17:26:44 0° 154° (SSE) 3,399 5.3 -11.0°
